Weather History for EBLG - October, 2012

Change the Weather History Date:

Friday, October 19, 2012

  Actual Average Record
Temperature  
Mean Temperature 66 °F -  
Max Temperature 71 °F 50 °F 71 °F (2012)
Min Temperature 61 °F 40 °F 32 °F (2003)
Cooling Degree Days 1    
Growing Degree Days 16 (Base 50)    
Moisture  
Dew Point 51 °F    
Average Humidity 58    
Maximum Humidity 68    
Minimum Humidity 40    
Precipitation  
Precipitation 0.00 in - - ()
Sea Level Pressure  
Sea Level Pressure 29.85 in    
Wind  
Wind Speed 10 mph ()    
Max Wind Speed 16 mph    
Max Gust Speed 24 mph    
Visibility 14.7 miles    
Events      
Averages and records for this station are not official NWS values.
T = Trace of Precipitation, MM = Missing Value Source: Averaged Metar Reports

Daily Weather History Graph

Daily Weather History Graph

Search for Another Location

Airport or City:

Trip Planner

Search our weather history database for the weather conditions in past years. The results will help you decide how hot, cold, wet, or windy it might be!

Date:

Astronomy

Oct. 19, 2012 Rise Set
Actual Time 8:08 AM CEST 6:37 PM CEST
Civil Twilight 7:34 AM CEST 7:10 PM CEST
Nautical Twilight 6:56 AM CEST 7:48 PM CEST
Astronomical Twilight 6:18 AM CEST 8:26 PM CEST
Moon 12:58 PM CEST (10/19) 9:35 PM CEST (10/19)
Length of Visible Light 11h 35m
Length of Day
10h 29m
Waxing Crescent, 21% of the Moon is Illuminated
Oct 19
Waxing Crescent
Oct 22
First Quarter
Oct 29
Full
Nov 7
Last Quarter
Nov 13
New

Hourly Weather History & Observations

Time (CEST) Temp. Dew Point Humidity Pressure Visibility Wind Dir Wind Speed Gust Speed Precip Events Conditions
12:20 AM 62.6 °F 50.0 °F 63% 29.80 in - SE 9.2 mph - N/A   Clear
12:50 AM 62.6 °F 50.0 °F 63% 29.80 in - SSE 10.4 mph - N/A   Clear
1:20 AM 64.4 °F 48.2 °F 56% 29.80 in - South 11.5 mph - N/A   Clear
1:50 AM 64.4 °F 48.2 °F 56% 29.83 in - South 11.5 mph - N/A   Clear
2:00 AM 64 °F 49 °F 47% 29.82 in 19 mi South 11.2 mph - -   Mostly Cloudy
2:20 AM 62.6 °F 50.0 °F 63% 29.83 in - South 12.7 mph - N/A   Clear
2:50 AM 62.6 °F 50.0 °F 63% 29.83 in - South 12.7 mph - N/A   Clear
3:20 AM 62.6 °F 50.0 °F 63% 29.80 in - South 12.7 mph - N/A   Clear
3:50 AM 62.6 °F 48.2 °F 59% 29.80 in - South 11.5 mph - N/A   Clear
4:20 AM 62.6 °F 48.2 °F 59% 29.80 in - South 12.7 mph - N/A   Clear
4:50 AM 62.6 °F 48.2 °F 59% 29.83 in - South 11.5 mph - N/A   Clear
5:00 AM 63 °F 49 °F 50% 29.82 in 19 mi South 11.2 mph - -   Partly Cloudy
5:20 AM 62.6 °F 50.0 °F 63% 29.83 in - South 10.4 mph - N/A   Clear
5:50 AM 62.6 °F 50.0 °F 63% 29.83 in - South 10.4 mph - N/A   Clear
6:20 AM 62.6 °F 50.0 °F 63% 29.83 in - SSE 10.4 mph - N/A   Clear
6:50 AM 62.6 °F 48.2 °F 59% 29.83 in - SSE 10.4 mph - N/A   Clear
7:20 AM 62.6 °F 48.2 °F 59% 29.80 in - SSE 10.4 mph - N/A   Clear
7:50 AM 62.6 °F 48.2 °F 59% 29.80 in - South 13.8 mph - N/A   Clear
8:00 AM 62 °F 49 °F 51% 29.81 in 19 mi South 13.4 mph - -   Clear
8:20 AM 62.6 °F 48.2 °F 59% 29.80 in - South 15.0 mph - N/A   Clear
8:50 AM 62.6 °F 48.2 °F 59% 29.83 in - SSE 16.1 mph - N/A   Clear
9:20 AM 62.6 °F 48.2 °F 59% 29.83 in - South 15.0 mph - N/A   Clear
9:50 AM 62.6 °F 48.2 °F 59% 29.83 in - South 12.7 mph - N/A   Clear
10:20 AM 64.4 °F 48.2 °F 56% 29.86 in - South 11.5 mph - N/A   Clear
10:50 AM 66.2 °F 48.2 °F 52% 29.86 in - South 11.5 mph - N/A   Clear
11:00 AM 65 °F 49 °F 45% 29.84 in 19 mi South 11.2 mph - -   Scattered Clouds
11:20 AM 66.2 °F 48.2 °F 52% 29.83 in - South 11.5 mph - N/A   Clear
11:50 AM 68.0 °F 48.2 °F 49% 29.86 in - South 16.1 mph - N/A   Clear
12:20 PM 68.0 °F 48.2 °F 49% 29.86 in - South 13.8 mph - N/A   Clear
12:50 PM 68.0 °F 48.2 °F 49% 29.86 in - South 15.0 mph - N/A   Clear
1:20 PM 69.8 °F 50.0 °F 49% 29.86 in - South 11.5 mph - N/A   Clear
1:50 PM 69.8 °F 50.0 °F 49% 29.86 in - South 12.7 mph - N/A   Clear
2:00 PM 69 °F 50 °F 40% 29.86 in 19 mi South 13.4 mph - -   Scattered Clouds
2:20 PM 69.8 °F 50.0 °F 49% 29.86 in - SSW 9.2 mph - N/A   Clear
2:50 PM 71.6 °F 51.8 °F 50% 29.86 in - SSW 11.5 mph - N/A   Clear
3:20 PM 71.6 °F 51.8 °F 50% 29.86 in - SSW 10.4 mph - N/A   Clear
3:50 PM 69.8 °F 51.8 °F 53% 29.86 in - SSW 13.8 mph - N/A   Clear
4:20 PM 69.8 °F 53.6 °F 56% 29.86 in - SSW 10.4 mph - N/A   Clear
4:50 PM 68.0 °F 51.8 °F 56% 29.89 in - SSW 6.9 mph - N/A   Clear
5:00 PM 69 °F 53 °F 46% 29.87 in 19 mi SSW 6.7 mph - -   Mostly Cloudy
5:20 PM 68.0 °F 53.6 °F 60% 29.89 in 6.2 mi South 9.2 mph - N/A   Partly Cloudy
5:50 PM 68.0 °F 53.6 °F 60% 29.89 in 6.2 mi South 8.1 mph - N/A   Partly Cloudy
6:20 PM 66.2 °F 53.6 °F 64% 29.89 in 6.2 mi SSE 5.8 mph - N/A   Partly Cloudy
6:50 PM 66.2 °F 53.6 °F 64% 29.89 in 6.2 mi South 5.8 mph - N/A   Partly Cloudy
7:20 PM 66.2 °F 53.6 °F 64% 29.89 in - SSE 5.8 mph - N/A   Clear
7:50 PM 64.4 °F 53.6 °F 68% 29.89 in - SSE 8.1 mph - N/A   Clear
8:00 PM 65 °F 53 °F 57% 29.89 in 19 mi SSE 6.7 mph - -   Clear
8:20 PM 64.4 °F 53.6 °F 68% 29.89 in - SSE 11.5 mph - N/A   Clear
8:50 PM 64.4 °F 53.6 °F 68% 29.89 in - South 11.5 mph - N/A   Clear
9:20 PM 64.4 °F 53.6 °F 68% 29.89 in - South 11.5 mph 24.2 mph N/A   Clear
9:50 PM 64.4 °F 53.6 °F 68% 29.89 in - South 11.5 mph - N/A   Clear
10:20 PM 64.4 °F 53.6 °F 68% 29.92 in - South 11.5 mph - N/A   Clear
10:50 PM 62.6 °F 51.8 °F 68% 29.92 in - SSE 10.4 mph - N/A   Clear
11:00 PM 63 °F 53 °F 60% 29.91 in 19 mi SSE 11.2 mph - -   Partly Cloudy
11:20 PM 62.6 °F 51.8 °F 68% 29.92 in - SSE 8.1 mph - N/A   Clear
11:50 PM 62.6 °F 51.8 °F 68% 29.89 in - SE 6.9 mph - N/A   Clear